Location: Aldenham
(51.6667°N, 0.3500°W)
Time: 22:01:10
(UTC+00:00)

A-11 Canister half - Visible Passes

Search period start: 18 February 2026 00:00
Search period end: 28 February 2026 00:00
Orbit: 1512 x 1687 km, 47.2° (Epoch: 18 February)

Date Brightness Start Highest point End Pass type
(mag) Time Alt. Az. Time Alt. Az. Time Alt. Az.
18 Feb 10.5 03:19:42 17° SSE 03:19:42 17° SSE 03:21:41 10° SSE visible
18 Feb 10.6 05:17:56 11° SW 05:17:56 11° SW 05:18:40 10° SW visible
18 Feb 10.5 18:30:46 10° SSE 18:35:04 13° SE 18:37:43 12° ESE visible
18 Feb 9.7 20:28:44 10° SSW 20:35:58 36° SSE 20:35:58 36° SSE visible
18 Feb 10.7 22:31:53 10° WSW 22:34:12 19° WSW 22:34:12 19° WSW visible
19 Feb 10.9 02:58:37 11° SSE 02:58:37 11° SSE 02:58:50 10° SSE visible
19 Feb 10.5 18:08:36 10° SE 18:12:10 12° ESE 18:15:43 10° ESE visible
19 Feb 9.5 20:05:51 10° SSW 20:14:49 38° SE 20:14:49 38° SE visible
19 Feb 10.2 22:08:50 10° WSW 22:13:03 29° WSW 22:13:03 29° WSW visible
20 Feb 9.6 19:42:59 10° SSW 19:51:50 36° SE 19:53:35 34° ESE visible
20 Feb 9.8 21:45:48 10° WSW 21:51:49 40° SW 21:51:49 40° SW visible
21 Feb 9.7 19:20:06 10° SSW 19:28:52 34° SE 19:32:17 28° ESE visible
21 Feb 9.4 21:22:46 10° WSW 21:30:31 52° SSW 21:30:31 52° SSW visible
21 Feb 10.9 23:27:16 10° W 23:28:44 16° W 23:28:44 16° W visible
22 Feb 9.8 18:57:16 10° SSW 19:05:53 33° SE 19:10:55 22° E visible
22 Feb 9.1 20:59:44 10° WSW 21:09:07 60° S 21:09:07 60° S visible
22 Feb 10.5 23:04:11 10° W 23:07:21 23° W 23:07:21 23° W visible
23 Feb 9.9 18:34:26 10° SSW 18:42:54 31° SE 18:49:28 16° E visible
23 Feb 9.1 20:36:44 10° WSW 20:46:38 60° SSE 20:47:41 57° SE visible
23 Feb 10.1 22:41:07 10° W 22:45:53 32° WSW 22:45:53 32° WSW visible
24 Feb 10.0 18:11:37 10° SSW 18:19:56 30° SE 18:27:57 11° E visible
24 Feb 9.2 20:13:42 10° SW 20:23:35 58° SSE 20:26:09 47° ESE visible
24 Feb 9.7 22:18:02 10° W 22:24:22 43° WSW 22:24:22 43° WSW visible
25 Feb 9.2 19:50:42 10° SW 20:00:33 57° SSE 20:04:35 37° ESE visible
25 Feb 9.4 21:54:58 10° W 22:02:47 56° WSW 22:02:47 56° WSW visible
25 Feb 10.9 23:59:48 10° W 00:00:59 14° W 00:00:59 14° W visible
26 Feb 9.3 19:27:42 10° SW 19:37:31 56° SSE 19:42:57 29° E visible
26 Feb 9.1 21:31:53 10° W 21:41:09 67° SSW 21:41:09 67° SSW visible
26 Feb 10.7 23:36:43 10° W 23:39:21 20° W 23:39:21 20° W visible
27 Feb 9.4 19:04:43 10° SW 19:14:28 54° SSE 19:21:17 22° E visible
27 Feb 9.0 21:08:49 10° W 21:18:55 70° S 21:19:29 69° SSE visible
27 Feb 10.3 23:13:37 10° W 23:17:40 27° W 23:17:40 27° W visible
